FENGYUN 1C DEB

Satellite information

Favourite Embed

Satellite Type and Status

DEBRISIN ORBIT

Key statistics

Satellite FENGYUN 1C DEB at a glance.

Uptime

9615

Days in orbit

Revolutions

≈ 14.2

Per day

Orbit

SSO

Sun Synchronous Orbit

Inclination

98.6

Latest

Satellite identification and parameters

Extended collection of information and parameters for FENGYUN 1C DEB.

Object identification

Identified? True

Debris? True

Object name: FENGYUN 1C DEB

International designator: 1999-025ASQ

Object number (NORAD): 30730

Object ID (CCSDS): 30730

Country: PEOPLES REPUBLIC OF CHINA (PRC)

Current information (Y/N): Y

RCS size: SMALL

Orbital parameters

Period: 101.064 minutes

Inclination: 98.6296 deg

SMA: 7187.189 km

Apoapsis: 864.773 km

Periapsis: 753.335 km

RAAN: 287.8898 deg

Eccentricy: 0.00775253

Argument of periapsis: 339.7321 deg

Mean anomaly: 85.6287 deg

Mean motion: 14.24833746 rev/day

Mean motion (dot): 0.00003237 rev/day2

B* drag term: 0.0013626046 1/REarth

Two-line elements (TLE)

Creation date: Sept. 4, 2025, 10:13 a.m.

Reference frame: TEME

Reference center: EARTH

Epoch: Sept. 4, 2025, 1:33 a.m. UTC

TLE line 0: 0 FENGYUN 1C DEB

TLE line 1: 1 30730U 99025ASQ 25247.06490296 .00003237 00000-0 13626-2 0 9999

TLE line 2: 2 30730 98.6296 287.8898 0077525 339.7321 85.6287 14.24833746955860

Live tracking on map

Real-time ground track for satellite FENGYUN 1C DEB.

In-orbit conjunctions

A list of the most updated potential collisions computed for object FENGYUN 1C DEB.

Target Orbit TCA Probability of collision Miss distance Type
NOAA 9 SSO 2025-06-13 08:06:16 0.0001013103 513.0 (m) PAYLOAD
SL-16 DEB LEO 2024-11-11 16:10:40 0.0003061345 247.0 (m) DEBRIS

Associated space launch

Chinese polar orbiting meteorological satellite

FENGYUN 1C DEB was lifted into orbit during the mission ‘Long March 4B | Feng Yun 1C’, on board a Long March 4B space rocket.

The launch took place on May 10, 1999, 1:33 a.m. from Launch Complex 7.

For more information about the launch, click the button.

Launch to space Long March 4B | Feng Yun 1C
Long March 4B | Feng Yun 1C

Agency: N/A

Status: Launch Successful

Launch date: May 10, 1999, 1:33 a.m. UTC

Rocket: Long March 4B

Launch pad: Launch Complex 7

Location: Taiyuan Satellite Launch Center, People's Republic of China

...

Latest news about this satellite

There are no fresh news available about this satellite. Check back as we update our databases every day.


Newsletter sign-up

Weekly statistics, charts and insights to help you stay on top of the space industry.